User: anonymous   Login
Location: Bégole
(43.1574°N, 0.3291°E)
Time: 22:10:42
(UTC+00:00)
Language:

deb Delta 89 - Orbit

View from above orbital plane
View from above orbital plane
View from above satellite
View from above satellite

Ground track
Ground track

The orbit data is extracted from the following two-line orbital elements,

1 08544U 72058GT  24051.79420540  .00000567  00000-0  65023-3 0  9993
2 08544  97.4416   7.8829 0843331 298.6678  53.2149 12.73402442410093
Epoch (UTC): 20 February 2024 19:03:39
Eccentricity: 0.0843331
inclination: 97.4416°
perigee height: 715 km
apogee height: 2021 km
right ascension of ascending node: 7.8829°
argument of perigee: 298.6678°
revolutions per day: 12.73402442
mean anomaly at epoch: 53.2149°
orbit number at epoch: 41009

The dashed part of the orbit path shows where the satellite is in the earth's shadow,  

DLR